Volver al catálogo

SDA_1682

ActivoCienciaPO
NORAD 65992·PAYLOAD·🇺🇸 United States

Lanzado Oct 15, 2025 desde Vandenberg Space Force Base

Loading…

Próximos Pases (próximas 24 horas)

TLE

ActualizadoSource: Space-Track

Época: Sep 14, 2026, 15:36 UTC

1 65992U 25230U   26257.65030737  .00000143  00000-0  13076-3 0  9994
2 65992  81.3020 130.5621 0001213  54.5903 305.5363 13.78099607 46081

Sigue SDA_1682 en tiempo real con AllMySat

Download on the App Store